Buenos Aires, Argentina

1:49 PM America en Junio 23, 2018 (GMT +0000)
Jorge Newbery Aeroparque

Tiempo Historia de SABE - Marzo, 2018

Change the Weather History Date:

Martes, Marzo 13, 2018

  Actual Average Record
Temperature  
Temperatura media 75 ° F -  
Temperatura máxima 85 ° F 75 ° F 86 ° F (2015)
Temperatura mínima 65 ° F 61 ° F 53 ° F (2003)
Cooling Degree Days 10    
Growing Degree Days 25 (Base 50)    
Moisture  
Punto de rocío 49 ° F    
Average Humidity 40    
Maximum Humidity 73    
Minimum Humidity 12    
Precipitación  
Precipitación 0.00 pul 0.14 pul - ()
Presión al nivel del mar  
Presión al nivel del mar 29.80 pul    
Viento  
Velocidad del viento 7 mph ()    
Velocidad máxima del viento 10 mph    
Max Gust Speed -    
Visibilidad 6.0 Millas    
Eventos      
Averages and records for this station are not official NWS values.
T = Trace of Precipitation, MM = Missing Value Source: Averaged Metar Reports

Daily Weather History Graph

Daily Weather History Graph

Search for Another Location

Airport or City:

Astronomía

Mar. 13, 2018 Salida Puesta
Hora real 6:51 AM -03 7:14 PM -03
Crepúsculo civil 6:25 AM -03 7:39 PM -03
Crepúsculo náutico 5:56 AM -03 8:09 PM -03
Crepúsculo astronómico 5:26 AM -03 8:39 PM -03
Luna 3:00 AM -03 (3/13) 5:08 PM -03 (3/13)
Horas de luz 13h 13m
Horas de luz
12h 23m
Creciente menguante, 15% of the Moon is Illuminated
Mar 13
Creciente menguante
Mar 17
Nueva
Mar 24
Cuarto creciente
Mar 31
Luna llena
Abr 8
Cuarto menguante

Hourly Weather History & Observations

Hora (-03) Temp. Punto de rocío Humedad Presión Visibilidad Wind Dir Velocidad del viento Velocidad de ráfagas Precip Eventos Condiciones
12:00 AM 72 ° F 50 ° F 35% 29.81 pul 6 mi NE 9.2 mph - -   Parcialmente nublado
12:00 AM 71.6 ° F 51.8 ° F 50% 29.80 pul - NE 9.2 mph - N/A   Despejado
1:00 AM 71.6 ° F 53.6 ° F 53% 29.80 pul - NNE 9.2 mph - N/A   Despejado
3:00 AM 71 ° F 56 ° F 48% 29.81 pul 6 mi Norte 5.8 mph - -   Despejado
3:00 AM 71.6 ° F 55.4 ° F 57% 29.80 pul - Norte 5.8 mph - N/A   Despejado
4:00 AM 71.6 ° F 57.2 ° F 60% 29.80 pul - Norte 9.2 mph - N/A   Despejado
5:00 AM 68.0 ° F 59.0 ° F 73% 29.80 pul - NO 6.9 mph - N/A   Despejado
6:00 AM 66 ° F 58 ° F 67% 29.81 pul 6 mi NO 6.9 mph - -  
6:00 AM 66.2 ° F 57.2 ° F 73% 29.80 pul - NO 8.1 mph - N/A   Despejado
7:00 AM 66.2 ° F 53.6 ° F 64% 29.80 pul - NO 10.4 mph - N/A   Despejado
8:00 AM 69.8 ° F 51.8 ° F 53% 29.83 pul - NO 6.9 mph - N/A   Despejado
9:00 AM 72 ° F 51 ° F 37% 29.84 pul 6 mi ONO 10.4 mph - -  
9:00 AM 73.4 ° F 51.8 ° F 47% 29.83 pul - ONO 9.2 mph - N/A   Despejado
10:00 AM 77.0 ° F 50.0 ° F 39% 29.83 pul - Oeste 9.2 mph - N/A   Despejado
11:00 AM 77.0 ° F 50.0 ° F 39% 29.83 pul - ONO 8.1 mph - N/A   Despejado
12:00 PM 80 ° F 50 ° F 24% 29.83 pul 6 mi OSO 6.9 mph - -  
12:00 PM 80.6 ° F 48.2 ° F 32% 29.83 pul - Oeste 8.1 mph - N/A   Despejado
1:00 PM 80.6 ° F 46.4 ° F 30% 29.80 pul - OSO 10.4 mph - N/A   Despejado
2:00 PM 82.4 ° F 46.4 ° F 28% 29.80 pul - Sur 8.1 mph - N/A   Despejado
3:00 PM 83 ° F 44 ° F 16% 29.80 pul 6 mi OSO 8.1 mph - -   Nubes dispersas
3:00 PM 84.2 ° F 44.6 ° F 25% 29.77 pul - SO 6.9 mph - N/A   Despejado
4:00 PM 84.2 ° F 41.0 ° F 22% 29.77 pul - SO 5.8 mph - N/A   Despejado
5:00 PM 84.2 ° F 39.2 ° F 20% 29.77 pul - OSO 6.9 mph - N/A   Despejado
6:00 PM 82 ° F 38 ° F 12% 29.78 pul 6 mi SO 4.6 mph - -  
6:00 PM 82.4 ° F 39.2 ° F 21% 29.77 pul - SO 4.6 mph - N/A   Despejado
7:00 PM 80.6 ° F 37.4 ° F 21% 29.77 pul - SSO 3.5 mph - N/A   Despejado
8:00 PM 78.8 ° F 37.4 ° F 23% 29.77 pul - Sur 3.5 mph - N/A   Despejado
9:00 PM 77 ° F 36 ° F 13% 29.81 pul 6 mi SSE 4.6 mph - -  
9:00 PM 77.0 ° F 35.6 ° F 22% 29.80 pul - SSE 4.6 mph - N/A   Despejado
10:00 PM 73.4 ° F 59.0 ° F 61% 29.83 pul - ESE 10.4 mph - N/A   Despejado
11:00 PM 73.4 ° F 60.8 ° F 65% 29.80 pul - Este 8.1 mph - N/A   Despejado